Fairbanks, AK

4:18 AM AKDT on July 29, 2017 (GMT -0800)
Fairbanks International

Weather History for PAFA - January, 2015

Change the Weather History Date:

Saturday, January 3, 2015

  Actual Average Record
Temperature  
Mean Temperature -15 °F -7 °F  
Max Temperature -11 °F 2 °F 29 °F (1968)
Min Temperature -20 °F -16 °F -57 °F (1969)
Degree Days  
Heating Degree Days 80 72  
Month to date heating degree days 203 216  
Since 1 July heating degree days 5678 6488  
Cooling Degree Days 0 0  
Month to date cooling degree days 0 0  
Year to date cooling degree days 0 0  
Moisture  
Dew Point -23 °F    
Average Humidity 70    
Maximum Humidity 79    
Minimum Humidity 51    
Precipitation  
Precipitation 0.00 in 0.02 in 0.22 in (1950)
Month to date precipitation 0.00 0.06  
Year to date precipitation 0.00 0.06  
Snow  
Snow 0.00 in 0.40 in 5.80 in (1973)
Month to date snowfall 0.0 1.2  
Since 1 July snowfall 25.0 39.1  
Snow Depth 10.00 in    
Sea Level Pressure  
Sea Level Pressure 30.61 in    
Wind  
Wind Speed 1 mph (North)    
Max Wind Speed 5 mph    
Max Gust Speed -    
Visibility 10 miles    
Events      
T = Trace of Precipitation, MM = Missing Value Source: NWS Daily Summary

Daily Weather History Graph

Daily Weather History Graph

Search for Another Location

Airport or City:

Trip Planner

Search our weather history database for the weather conditions in past years. The results will help you decide how hot, cold, wet, or windy it might be!

Date:

Astronomy

Jan. 03, 2015 Rise Set
Actual Time 10:51 AM AKST 3:00 PM AKST
Civil Twilight 9:31 AM AKST 4:21 PM AKST
Nautical Twilight 8:21 AM AKST 5:31 PM AKST
Astronomical Twilight 7:20 AM AKST 6:32 PM AKST
Moon 2:54 PM AKST (1/3) 8:45 AM AKST (1/3)
Length of Visible Light 6h 49m
Length of Day
4h 09m
Waxing Gibbous, 98% of the Moon is Illuminated
Jan 3
Waxing Gibbous
Jan 4
Full
Jan 13
Last Quarter
Jan 20
New
Jan 26
First Quarter

Hourly Weather History & Observations

Time (AKST) Temp. Windchill Dew Point Humidity Pressure Visibility Wind Dir Wind Speed Gust Speed Precip Events Conditions
12:53 AM -11.9 °F -23.8 °F -17.0 °F 78% 30.57 in 10.0 mi WNW 4.6 mph - N/A   Partly Cloudy
1:53 AM -13.0 °F - -20.0 °F 71% 30.58 in 10.0 mi Calm Calm - N/A   Partly Cloudy
2:53 AM -18.0 °F - -24.0 °F 74% 30.58 in 10.0 mi Calm Calm - N/A   Partly Cloudy
3:53 AM -14.1 °F - -18.9 °F 79% 30.59 in 10.0 mi Calm Calm - N/A   Partly Cloudy
4:53 AM -16.6 °F - -22.0 °F 76% 30.53 in 9.0 mi Calm Calm - N/A   Partly Cloudy
5:53 AM -18.0 °F - -24.0 °F 74% 30.59 in 9.0 mi Calm Calm - N/A   Partly Cloudy
6:53 AM -14.1 °F -23.9 °F -20.0 °F 75% 30.59 in 9.0 mi ENE 3.5 mph - N/A   Partly Cloudy
7:53 AM -17.0 °F - -24.0 °F 70% 30.60 in 10.0 mi Calm Calm - N/A   Partly Cloudy
8:53 AM -18.0 °F - -24.0 °F 74% 30.62 in 10.0 mi Calm Calm - N/A   Partly Cloudy
9:53 AM -17.0 °F -27.2 °F -23.1 °F 74% 30.63 in 10.0 mi NNE 3.5 mph - N/A   Clear
10:53 AM -14.1 °F -23.9 °F -20.9 °F 71% 30.63 in 10.0 mi NNE 3.5 mph - N/A   Clear
11:53 AM -14.1 °F - -20.9 °F 71% 30.63 in 10.0 mi Calm Calm - N/A   Clear
12:53 PM -14.1 °F - -20.9 °F 71% 30.63 in 10.0 mi Calm Calm - N/A   Clear
1:53 PM -11.9 °F -21.5 °F -18.9 °F 71% 30.63 in 10.0 mi NNE 3.5 mph - N/A   Clear
2:53 PM -16.1 °F - -23.1 °F 71% 30.63 in 10.0 mi Calm Calm - N/A   Clear
3:53 PM -15.0 °F - -20.9 °F 75% 30.64 in 10.0 mi Calm Calm - N/A   Clear
4:53 PM -16.1 °F - -22.0 °F 74% 30.64 in 10.0 mi Calm Calm - N/A   Clear
5:53 PM -17.0 °F - -24.0 °F 70% 30.63 in 10.0 mi Calm Calm - N/A   Clear
6:53 PM -17.0 °F -27.2 °F -23.1 °F 74% 30.63 in 10.0 mi NNE 3.5 mph - N/A   Clear
7:53 PM -16.1 °F - -24.0 °F 67% 30.62 in 10.0 mi Calm Calm - N/A   Clear
8:53 PM -18.0 °F -28.5 °F -26.0 °F 67% 30.63 in 10.0 mi NW 3.5 mph - N/A   Clear
9:53 PM -18.0 °F - -25.1 °F 70% 30.62 in 10.0 mi Calm Calm - N/A   Partly Cloudy
10:53 PM -18.0 °F - -25.1 °F 70% 30.62 in 10.0 mi Calm Calm - N/A   Partly Cloudy
11:53 PM -18.0 °F - -25.1 °F 70% 30.61 in 10.0 mi Calm Calm - N/A   Clear